Location: Township of Marena
(38.1747°N, 99.6798°W)
Time: 03:17:04
(UTC+00:00)

ASTRO E2 - Pass Details

Date: 26 October 2020
Orbit: 509 x 515 km, 31.4° (Epoch: 27 November)

Event Time Altitude Azimuth Distance (km) Brightness Sun altitude
Rises 01:04:15 0° 234° (SW) 2,595 7.3 -15.8°
Reaches altitude 10° 01:06:49 10° 218° (SW) 1,711 5.9 -16.3°
Maximum altitude 01:09:55 22° 167° (SSE) 1,136 4.3 -16.9°
Enters shadow 01:10:54 20° 145° (SE) 1,208 4.2 -17.1°
